📊 Raw Sensor Data

Showing records 41651 to 41675 of 84,986 total

ID Distance (ft) Battery V Battery A Int Temp (°F) Int Humid (%) Ext Temp (°F) Solar V RSSI SNR Time Stamp
43348 15.4 3.95 -5 51 43 52 0.00 -66 8 06/13/2025 02:15 AM
43347 15.4 3.95 -5 51 43 53 0.00 -66 8 06/13/2025 02:00 AM
43346 15.4 4.02 -5 51 44 54 0.00 -67 8 06/13/2025 01:45 AM
43345 15.4 3.95 -5 51 44 53 0.00 -66 8 06/13/2025 01:30 AM
43344 15.4 3.95 -5 50 44 54 0.00 -67 9 06/13/2025 01:15 AM
43343 15.4 4.02 -5 51 44 52 0.00 -67 8 06/13/2025 01:00 AM
43342 15.4 3.96 -5 51 45 52 0.00 -66 7 06/13/2025 12:45 AM
43341 15.4 4.02 -5 51 45 53 0.00 -67 8 06/13/2025 12:30 AM
43340 15.4 3.96 -5 52 45 53 0.00 -66 8 06/13/2025 12:15 AM
43339 15.4 3.96 -5 53 45 53 0.00 -66 8 06/13/2025 12:00 AM
43338 15.4 3.96 -5 54 46 55 0.00 -66 8 06/12/2025 11:45 PM
43337 15.4 4.03 -5 54 46 55 0.00 -66 7 06/12/2025 11:30 PM
43336 15.4 3.96 -5 55 46 56 0.00 -66 8 06/12/2025 11:15 PM
43335 15.4 3.96 -5 57 46 57 0.00 -66 7 06/12/2025 11:00 PM
43334 15.4 3.96 -5 57 46 59 0.00 -66 8 06/12/2025 10:45 PM
43333 15.4 3.97 -5 58 47 59 0.00 -67 8 06/12/2025 10:30 PM
43332 15.4 3.97 -5 59 47 60 0.00 -67 8 06/12/2025 10:15 PM
43331 15.4 3.97 -5 59 48 60 0.00 -66 8 06/12/2025 10:00 PM
43330 15.4 3.97 -5 60 49 61 0.00 -67 8 06/12/2025 09:45 PM
43329 15.4 3.97 -5 61 50 62 0.10 -71 8 06/12/2025 09:30 PM
43328 15.4 3.97 -5 62 51 62 0.00 -71 8 06/12/2025 09:15 PM
43327 15.4 3.97 -5 64 53 63 0.00 -69 8 06/12/2025 09:00 PM
43326 15.4 3.97 -5 66 55 64 0.50 -70 8 06/12/2025 08:45 PM
43325 15.4 4.03 -10 69 55 66 4.30 -71 8 06/12/2025 08:30 PM
43324 15.5 3.98 0 74 54 69 4.50 -71 8 06/12/2025 08:15 PM